Weather History for KHYA - July, 2012

Change the Weather History Date:

Tuesday, July 24, 2012

  Actual Average Record
Temperature  
Mean Temperature 76 °F -  
Max Temperature 88 °F 78 °F 93 °F (1952)
Min Temperature 66 °F 62 °F 48 °F (1966)
Cooling Degree Days 12    
Growing Degree Days 26 (Base 50)    
Moisture  
Dew Point 69 °F    
Average Humidity 86    
Maximum Humidity 94    
Minimum Humidity 61    
Precipitation  
Precipitation 0.22 in - - ()
Sea Level Pressure  
Sea Level Pressure 29.63 in    
Wind  
Wind Speed 11 mph (SW)    
Max Wind Speed 22 mph    
Max Gust Speed 36 mph    
Visibility 9 miles    
Events Rain , Thunderstorm    
Averages and records for this station are not official NWS values.
T = Trace of Precipitation, MM = Missing Value Source: NWS Daily Summary

Daily Weather History Graph

Daily Weather History Graph

Search for Another Location

Airport or City:

Trip Planner

Search our weather history database for the weather conditions in past years. The results will help you decide how hot, cold, wet, or windy it might be!

Date:

Astronomy

Jul. 24, 2012 Rise Set
Actual Time 5:28 AM EDT 8:06 PM EDT
Civil Twilight 4:56 AM EDT 8:38 PM EDT
Nautical Twilight 4:15 AM EDT 9:18 PM EDT
Astronomical Twilight 3:30 AM EDT 10:04 PM EDT
Moon 11:28 AM EDT (7/24) 10:46 PM EDT (7/24)
Length of Visible Light 15h 42m
Length of Day
14h 38m
Waxing Crescent, 31% of the Moon is Illuminated
Jul 24
Waxing Crescent
Jul 26
First Quarter
Aug 1
Full
Aug 9
Last Quarter
Aug 17
New

Hourly Weather History & Observations

Time (EDT) Temp. Heat Index Dew Point Humidity Pressure Visibility Wind Dir Wind Speed Gust Speed Precip Events Conditions
12:29 AM 73.4 °F - 69.8 °F 88% 29.80 in 10.0 mi SSW 11.5 mph - N/A   Overcast
12:56 AM 73.0 °F - 70.0 °F 90% 29.80 in 10.0 mi SSW 10.4 mph - N/A   Overcast
1:56 AM 73.0 °F - 70.0 °F 90% 29.78 in 10.0 mi SSW 11.5 mph 20.7 mph N/A   Overcast
2:56 AM 73.0 °F - 71.1 °F 93% 29.75 in 10.0 mi SSW 12.7 mph - N/A   Overcast
3:56 AM 73.9 °F - 72.0 °F 93% 29.73 in 10.0 mi SSW 11.5 mph - N/A   Overcast
4:45 AM 73.4 °F - 71.6 °F 94% 29.71 in 8.0 mi SSW 11.5 mph - N/A   Overcast
4:56 AM 73.9 °F - 72.0 °F 93% 29.70 in 9.0 mi SSW 12.7 mph - N/A   Overcast
5:15 AM 73.4 °F - 71.6 °F 94% 29.70 in 8.0 mi SW 15.0 mph 20.7 mph N/A   Overcast
5:56 AM 73.9 °F - 72.0 °F 93% 29.73 in 7.0 mi West 13.8 mph 23.0 mph N/A   Overcast
6:34 AM 69.8 °F - 64.4 °F 83% 29.67 in 6.0 mi Variable 3.5 mph 18.4 mph 0.06 in Rain , Thunderstorm Heavy Thunderstorms and Rain
6:40 AM 69.8 °F - 64.4 °F 83% 29.66 in 9.0 mi South 6.9 mph - 0.06 in Rain Light Rain
6:56 AM 69.1 °F - 64.9 °F 87% 29.64 in 10.0 mi South 9.2 mph - 0.06 in Rain Light Rain
7:06 AM 71.6 °F - 66.2 °F 83% 29.64 in 10.0 mi SSW 10.4 mph - 0.00 in Thunderstorm Thunderstorm
7:30 AM 71.6 °F - 66.2 °F 83% 29.66 in 10.0 mi West 8.1 mph - 0.00 in   Partly Cloudy
7:56 AM 71.1 °F - 68.0 °F 90% 29.65 in 10.0 mi WSW 9.2 mph - 0.00 in   Clear
8:25 AM 71.6 °F - 69.8 °F 94% 29.65 in 10.0 mi SW 6.9 mph - N/A   Mostly Cloudy
8:48 AM 73.4 °F - 71.6 °F 94% 29.64 in 7.0 mi SSW 12.7 mph 19.6 mph N/A   Overcast
8:56 AM 73.9 °F - 72.0 °F 93% 29.64 in 6.0 mi SSW 11.5 mph 20.7 mph N/A   Overcast
9:56 AM 75.9 °F - 73.0 °F 91% 29.62 in 6.0 mi SW 17.3 mph 23.0 mph N/A   Overcast
10:35 AM 78.8 °F - 73.4 °F 83% 29.60 in 8.0 mi SW 15.0 mph - N/A   Mostly Cloudy
10:56 AM 80.1 °F 84.2 °F 73.0 °F 79% 29.60 in 8.0 mi SSW 12.7 mph - N/A   Mostly Cloudy
11:56 AM 81.0 °F 85.2 °F 72.0 °F 74% 29.59 in 9.0 mi SW 16.1 mph - N/A   Scattered Clouds
12:56 PM 80.1 °F 83.8 °F 72.0 °F 76% 29.57 in 9.0 mi SW 12.7 mph - N/A   Scattered Clouds
1:56 PM 82.0 °F 86.7 °F 72.0 °F 71% 29.55 in 9.0 mi SSW 9.2 mph - N/A   Partly Cloudy
2:56 PM 84.0 °F 90.2 °F 73.0 °F 69% 29.53 in 10.0 mi SSW 11.5 mph - N/A   Clear
3:56 PM 87.1 °F 93.6 °F 72.0 °F 61% 29.51 in 10.0 mi SW 12.7 mph - N/A   Clear
4:56 PM 71.6 °F - 64.4 °F 78% 29.57 in 10.0 mi North 21.9 mph 35.7 mph N/A Rain Light Rain
5:03 PM 71.6 °F - 64.4 °F 78% 29.57 in 10.0 mi North 16.1 mph 33.4 mph 0.00 in Rain Light Rain
5:37 PM 69.8 °F - 66.2 °F 88% 29.57 in 7.0 mi NNE 10.4 mph - 0.07 in Rain , Thunderstorm Thunderstorms and Rain
5:53 PM 69.8 °F - 66.2 °F 88% 29.55 in 8.0 mi North 9.2 mph - 0.08 in Rain , Thunderstorm Thunderstorms and Rain
5:56 PM 69.1 °F - 66.9 °F 93% 29.56 in 8.0 mi North 6.9 mph - 0.08 in Rain , Thunderstorm Thunderstorms and Rain
6:26 PM 69.8 °F - 68.0 °F 94% 29.55 in 10.0 mi Calm Calm - 0.01 in   Mostly Cloudy
6:56 PM 72.0 °F - 68.0 °F 87% 29.56 in 10.0 mi Calm Calm - 0.01 in   Mostly Cloudy
7:56 PM 71.1 °F - 69.1 °F 93% 29.57 in 10.0 mi Calm Calm - N/A   Clear
8:56 PM 70.0 °F - 68.0 °F 93% 29.56 in 10.0 mi WNW 4.6 mph - N/A   Partly Cloudy
9:56 PM 70.0 °F - 66.9 °F 90% 29.59 in 10.0 mi WNW 4.6 mph - N/A   Clear
10:56 PM 66.9 °F - 63.0 °F 87% 29.62 in 5.0 mi NNW 9.2 mph 19.6 mph 0.07 in Rain , Thunderstorm Light Thunderstorms and Rain
11:31 PM 68.0 °F - 62.6 °F 83% 29.63 in 10.0 mi NNW 9.2 mph 16.1 mph 0.00 in   Partly Cloudy